www.pogodaiklimat.ru

Погода и климат >> Архив погоды >> Перу >> Tarapoto


ПОГОДА в Tarapoto

  • Прогноз погоды в Tarapoto
  • Монитор погоды в Tarapoto
  • Климат города

АРХИВ ПОГОДЫ в Tarapoto

Время (UTC), дата Ветер
(напр.,м/с)
 
Видим.   Явления Облачность Т
(С)
Тd
(С)
f
(%)
Тe
(С)
Тes
(С)
Комфортность P
(гПа)
Po
(гПа)
Тmin
(С)
Tmax
(С)
R
(мм)
R24
(мм)
S
(см)
00 14.02 ЮВ 2 10 км 5/1 750 м
[Cu hum Ac trans]
+28.3 +21.7 67 +36 +36 очень
душно
1008.0 979.4 +35.2
03 14.02 Ю 2 10 км 3/3 750 м
[Cu hum]
+26.0 +21.7 77 +33 +33 очень
душно
1010.2 981.4
12 14.02 Ю 1 10 км 10/4 600 м
[Sc Ac trans]
+23.9 +23.2 96 +32 +32 очень
душно
1012.3 983.2 +22.2
15 14.02 ЮВ 2 10 км 10/4 600 м
[Sc Ac trans]
+25.7 +23.6 88 +35 +39 очень
душно
1013.8 984.9
18 14.02 З 2 10 км 10/4 600 м
[Cu med, cong Ac trans]
+28.5 +23.7 75 +39 +44 очень
душно
1011.9 983.3
21 14.02 З 2 10 км 10/4 750 м
[Cu hum Ac trans]
+29.9 +22.8 66 +40 +41 очень
душно
1009.0 980.6
00 15.02 СВ 4 10 км 10/4 750 м
[Sc Ac trans]
+25.9 +21.0 74 +32 +32 очень
душно
1010.3 981.5 +31.0
03 15.02 штиль 0 10 км 3/3 900 м
[Cu hum]
+23.6 +21.5 88 +30 +30 очень
душно
1012.8 983.7
12 15.02 штиль 0 4000 м туман поземный 10/10 360 м
[St]
+22.8 +22.3 97 +31 +31 очень
душно
1013.4 984.2 +22.6
15 15.02 штиль 0 6000 м туман поземный 10/10 360 м
[St]
+25.8 +22.8 84 +34 +34 очень
душно
1014.6 985.6
18 15.02 В 2 10 км {туман} 10/5 450 м
[Sc As trans]
+26.1 +22.2 79 +34 +38 очень
душно
1013.0 984.1
21 15.02 ЮВ 2 5000 м слабая морось {туман} 10/10 360 м
[St]
+23.8 +22.3 91 +31 +31 очень
душно
1010.7 981.7
00 16.02 штиль 0 8000 м 10/10 450 м
[St]
+23.5 +22.7 95 +31 +31 очень
душно
1011.5 982.5 +27.5 1
03 16.02 штиль 0 10 км 8/4 750 м
[Sc As trans]
+23.1 +22.4 96 +32 +32 очень
душно
1013.9 984.7
12 16.02 штиль 0 3000 м туман поземный 10/10 360 м
[St]
+22.7 +22.2 97 +31 +31 очень
душно
1014.6 985.4 +22.3 1
15 16.02 штиль 0 7000 м {туман} 10/10 360 м
[St]
+25.2 +22.3 84 +33 +33 очень
душно
1016.3 987.2
18 16.02 штиль 0 10 км {туман} 10/4 750 м
[Sc Ac trans]
+27.8 +22.3 72 +36 +43 очень
душно
1014.3 985.6
21 16.02 СВ 2 10 км слабая морось 10/5 600 м
[Sc As trans]
+24.7 +22.1 85 +32 +33 очень
душно
1012.6 983.6
00 17.02 штиль 0 10 км 6/3 750 м
[Cu hum Ac trans]
+23.7 +21.1 85 +30 +30 очень
душно
1012.1 983.0 +28.5
03 17.02 В 2 10 км 5/1 750 м
[Cu hum Ac trans]
+22.6 +21.4 93 +30 +30 очень
душно
1013.7 984.5
12 17.02 штиль 0 2000 м 10/10 300 м
[St]
+22.2 +21.7 97 +29 +29 очень
душно
1013.3 984.0 +21.8
15 17.02 штиль 0 8000 м {туман} 10/5 450 м
[Sc As trans]
+25.3 +21.8 81 +33 +37 очень
душно
1015.0 986.0
18 17.02 штиль 0 10 км {туман} 10/4 750 м
[Cu hum Ac trans]
+29.2 +20.3 59 +36 +43 очень
душно
1011.0 982.4
21 17.02 СВ 4 10 км 4/4 600 м
[Cu med, cong]
+30.8 +21.5 58 +39 +42 очень
душно
1007.5 979.2
00 18.02 СЗ 3 10 км 1/1 750 м
[Cu hum]
+28.3 +20.5 63 +35 +35 очень
душно
1008.5 979.9 +34.0
03 18.02 В 1 10 км 1/1 750 м
[Cu hum]
+23.8 +22.1 90 +31 +31 очень
душно
1011.4 982.4
12 18.02 Ю 1 500 м туман 10/10 60 м
[St]
+21.4 +21.2 99 +27 +27 душно 1011.3 982.0 +20.7
15 18.02 Ю 2 10 км {туман} 5/1 600 м
[Cu hum Ac trans]
+28.0 +21.2 67 +35 +46 очень
душно
1011.5 982.8
18 18.02 С 5 10 км 8/4 600 м
[Cu med, cong Ac trans]
+33.6 +21.0 48 +41 +45 опасность
перегрева
1007.4 979.4
21 18.02 СЗ 6 10 км 6/3 600 м
[Cu med, cong Ac trans]
+33.4 +21.5 50 +41 +43 опасность
перегрева
1004.0 976.0
00 19.02 СЗ 4 10 км 6/3 750 м
[Cu hum Ac trans]
+29.6 +20.4 58 +36 +36 очень
душно
1005.5 977.2 +34.9
03 19.02 СЗ 3 10 км 1/1 750 м
[Cu hum]
+27.9 +20.4 64 +35 +35 очень
душно
1008.2 979.6
12 19.02 С 1 10 км 10/4 750 м
[Sc Ac trans]
+23.8 +21.5 87 +30 +31 очень
душно
1009.6 980.6 +22.0
15 19.02 СЗ 4 10 км 6/3 600 м
[Cu hum Ac trans]
+31.4 +22.1 58 +40 +47 очень
душно
1009.9 981.5
18 19.02 С 5 10 км 10/4 600 м
[Cu med, cong Ac trans]
+31.1 +20.6 54 +38 +41 очень
душно
1006.9 978.6
21 19.02 СЗ 3 10 км 10/4 600 м
[Cu med, cong Ac trans]
+31.5 +21.0 54 +39 +40 очень
душно
1004.8 976.7
00 20.02 С 5 10 км 8/4 600 м
[Cu med, cong Ac trans]
+28.6 +20.8 63 +36 +36 очень
душно
1006.3 977.9 +35.0
03 20.02 СЗ 2 10 км 10/4 600 м
[Cu med, cong Ac trans]
+27.9 +20.6 65 +35 +35 очень
душно
1009.1 980.5
15 20.02 Ю 3 10 км 10/4 450 м
[Sc As trans]
+23.1 +22.1 94 +31 +35 очень
душно
1013.5 984.3
18 20.02 СЗ 3 10 км 10/4 600 м
[Cu med, cong Ac trans]
+30.0 +22.1 63 +39 +43 очень
душно
1010.2 981.8

 

Местоположение метеостанции Tarapoto (Перу): широта -6.50 долгота -76.36 высота над уровнем моря 282 м.

В архиве по умолчанию представлена погода в Tarapoto за последнюю неделю. Архивные данные за месяц целиком и за предыдущие месяцы, начиная с января 2011 года, Вы можете получить, выбрав интересующий диапазон дат из раскрывающегося списка и нажав кнопку "Ввод!".

Внимание! Время в таблицах - всемирное. Для получения местного времени необходимо прибавить поправку, которая в Tarapoto равна -5 ч.

Смотрите также архив погоды в соседних городах и на ближайших метеорологических станциях:

Погода в Yurimaguas (Перу) (74 км)
Погода в Juanjui (Перу) (84 км)
Погода в Chachapoyas (Перу) (168 км)
Погода в Cajamarca (Перу) (242 км)
Погода в Pucallpa (Перу) (288 км)
Погода в Tingo Maria (Перу) (312 км)
Погода в Anta (Перу) (345 км)
Погода в Trujillo (Перу) (350 км)
Погода в Huanuco (Перу) (375 км)
Погода в Chimbote (Перу) (376 км)

Пояснения к столбцам:

Ветер - указаны скорость ветра в м/с - средняя за 10 мин, порывы в срок и между сроками (в фигурных скобках) и направление, откуда дует ветер: С - северный, СВ - северо-восточный, В - восточный, ЮВ - юго-восточный, Ю - южный, ЮЗ - юго-западный, З - западный, СЗ - северо-западный.
Видимость - горизонтальная дальность видимости в метрах или километрах. При видимости от 1 до 10 км при отсутствии осадков обычно наблюдается дымка, при ухудшении видимости до 1 км и менее - туман. В сухую погоду видимость может ухудшаться дымом, пылью или мглою.
Явления - указаны атмосферные явления, наблюдавшиеся в срок или в последний час перед сроком; фигурными скобками обозначены явления, наблюдавшиеся между сроками (за 1-3 часа до срока); квадратными скобками обозначены град или гололедные отложения с указанием их диаметра в мм.
Облачность - указаны через наклонную черту общая и нижняя облачность в баллах и высота нижней границы облаков в метрах; квадратными скобками обозначены формы облаков: Ci - перистые, Cs - перисто-слоистые, Cc - перисто-кучевые, Ac - высококучевые, As - высокослоистые, Sc - слоисто-кучевые, Ns - слоисто-дождевые, Cu - кучевые, Cb - кучево-дождевые. Подробнее классификацию облаков см. в Атласе облаков (PDF).
T - Температура воздуха - температура, измеренная на высоте 2 м над землей.
Td - Температура точки росы - температура, при понижении до которой содержащийся в воздухе водяной пар достигнет насыщения.
f - Относительная влажность воздуха - влажноcть воздуха, измеренная на высоте 2 м над землей.
Te - Эффективная температура - температура, которую ощущает одетый по сезону человек в тени. Характеристика душности погоды. При расчете учитывается влияние влажности воздуха и скорости ветра на теплоощущения человека.
Tes - Эффективная температура на солнце - температура, которую ощущает человек, с поправкой на солнечный нагрев. Характеристика знойности погоды. Зависит от высоты солнца над горизонтом, облачности и скорости ветра. Ночью, в пасмурную погоду, а также при ветре 12 м/с и более поправка равна нулю.
P - Атмосферное давление - приведенное к уровню моря атмосферное давление.
Po - Атмосферное давление - измеренное на уровне метеостанции атмосферное давление.
Tmin - Минимальная температура - минимум температуры воздуха на высоте 2 м над землей.
Tmax - Максимальная температура - максимум температуры воздуха на высоте 2 м над землей.
R - Количество осадков - Количество выпавших осадков за период времени, мм. При наведении курсора мыши на число - период времени, за который выпало указанное количество осадков.
R24 - Количество осадков - Количество выпавших осадков за 24 часа, мм.
S - Снежный покров - Высота снежного покрова, см. При наведении курсора мыши на число - состояние снежного покрова и степень покрытия местности в баллах.